Regional Weather Roundup
Issued by NWS New Orleans/Baton Rouge, LA

Home | Current Version | Previous Version | Text Only | Print | Product List | Glossary On
Versions: 1 2 3 4 5 6 7 8 9 10 11 12 13 14 15 16 17 18 19 20 21 22 23 24 25 26 27 28 29 30 31 32 33 34 35 36 37 38 39 40 41 42 43 44 45 46 47 48 49 50
000
ASUS44 KLIX 210014
RWRLIX
NEW ORLEANS REGIONAL WEATHER ROUNDUP
NATIONAL WEATHER SERVICE NEW ORLEANS LA
700 PM CDT THU JUL 20 2017

NOTE: "FAIR" INDICATES FEW OR NO CLOUDS BELOW 12,000 FEET WITH NO
      SIGNIFICANT WEATHER AND/OR OBSTRUCTIONS TO VISIBILITY.
      SKY/WX - SKY CONDITION AND SIGNIFICANT WEATHER.
      TMP - AIR TEMPERATURE.     DP    - DEWPOINT TEMPERATURE.
      RH  - RELATIVE HUMIDITY.   PRES  - PRESSURE.
      HI  - HEAT INDEX.          WCI   - WIND CHILL INDEX.

*  THESE STATIONS ARE NOT NWS OR FAA STATIONS AND ARE NOT UNDER
   NWS QUALITY CONTROL.

LAZ038-040-048-061>063-065>067-069-210100-
SOUTHEAST LOUISIANA

CITY           SKY/WX    TMP DP  RH WIND       PRES   REMARKS
N.O. INTL ARPT MOSUNNY   93  71  48 E8        29.99F HX 100
6HR MIN TEMP:  92; 6HR MAX TEMP:  96;

N.O. LAKEFRONT SUNNY     94  75  54 N3        30.00S HX 105
6HR MIN TEMP:  90; 6HR MAX TEMP:  94;

N.O. DOWNTOWN*   N/A     93  77  59 S9          N/A  HX 107
6HR MIN TEMP:  92; 6HR MAX TEMP:  96;

RESERVE*         N/A     93  74  53 CALM      29.99F HX 104
6HR MIN TEMP:  91; 6HR MAX TEMP:  97;

SLIDELL        MOSUNNY   94  72  48 CALM      29.99S HX 102
6HR MIN TEMP:  94; 6HR MAX TEMP:  97;

BATON ROUGE    SUNNY     93  72  50 NE6       29.98F HX 101
6HR MIN TEMP:  93; 6HR MAX TEMP:  97;

BOOTHVILLE     SUNNY     90  74  59 CALM      30.02S HX  99
6HR MIN TEMP:  89; 6HR MAX TEMP:  92;

BELLE CHASSE   MOSUNNY   88  79  74 S9        30.00S HX 103
BOGALUSA*        N/A     93  71  48 CALM      30.01S HX  99
6HR MIN TEMP:  92; 6HR MAX TEMP:  96;

GALLIANO*      PTCLDY    88  75  65 S5        30.00F HX  98
6HR MIN TEMP:  88; 6HR MAX TEMP:  93;

NEW ROADS*       N/A     91  75  60 NE3       30.00F HX 101
6HR MIN TEMP:  90; 6HR MAX TEMP:  93;

GONZALES*        N/A     89  77  67 CALM      29.98F HX 101
6HR MIN TEMP:  88; 6HR MAX TEMP:  95;

HAMMOND*       SUNNY     93  68  43 CALM      30.00S HX  97
HOUMA*         MOSUNNY   82  75  78 S3        30.01S
PORT FOURCHON* CLEAR     88  75  66 S9        30.00F HX  97

$$

MSZ070-080>082-210100-
SOUTHERN MISSISSIPPI

CITY           SKY/WX    TMP DP  RH WIND       PRES   REMARKS
MCCOMB         SUNNY     91  73  55 CALM      30.02S HX  99
6HR MIN TEMP:  90; 6HR MAX TEMP:  96;

GULFPORT       MOSUNNY   83  78  85 W5        30.00R
6HR MIN TEMP:  83; 6HR MAX TEMP:  95; 6HR PCP: TRACE;

BILOXI         SUNNY     89  77  67 SW7       30.00S HX 101
6HR MIN TEMP:  89; 6HR MAX TEMP:  93;

PASCAGOULA     SUNNY     89  74  60 S3        30.00R HX  98
6HR MIN TEMP:  85; 6HR MAX TEMP:  96; 6HR PCP: TRACE;

STENNIS ARPT*  MOSUNNY   90  79  70 SW5       30.00F HX 105

$$

COASTAL OBSERVATIONS
LAKE AND NEARSHORE STATIONS

STATION/POSITION TIME  TEMP    WIND        PRES    WAVE
                       AIR SEA DIR/SP/G            HT/PER
                 (UTC) (F)     (DEG/KT/KT) (MB)    (FT/S)
PASCAGOULA       2342   89     240/  4/  6 1015.8
WAVELAND YACHT   2348          160/  6/  7 1016.1
GRAND ISLE       2342   88 88  170/  4/  8 1016.4
SOUTHWEST PASS   2348          140/  3/  5   N/A
NEW CANAL        2342   92 90   20/  3/  4 1015.7
SHELL BEACH      2348          160/  6/  9 1016.2

OFFSHORE STATIONS

STATION/POSITION TIME  TEMP    WIND        PRES    WAVE
                       AIR SEA DIR/SP/G            HT/PER
                 (UTC) (F)     (DEG/KT/KT) (MB)    (FT/S)
64 S DAUPHIN ISL 2350   85 86  190/  2/  4 1016.6    1

$$




USA.gov is the U.S. government's official web portal to all federal, state and local government web resources and services.